N21710 KOWD-KBKL

Flight info

Callsign N21710
Flight time 1h 44m
Altitude 40000
Route HYLND MANCH CAM Q822 GONZZ Q29 JHW ERI CLERI
Aircraft CL60/M-SBDE1E2E3FGHIJ1J4J5J7M3RWXYZ/LB1V1D1

Departure

Time 2026-05-09 00:16
Airport Norwood Memorial Airport (KOWD)

Arrival

Time 2026-05-09 02:00
Airport Burke Lakefront Airport (KBKL)
Time Latitude Longitude Altitude Speed Heading
2026-05-08 23:40 42.18821 -71.17718 50 ft 0 kts 334°
2026-05-09 00:09 42.18827 -71.17720 50 ft 0 kts
2026-05-09 00:09 42.18840 -71.17715 50 ft 4 kts 26°
2026-05-09 00:09 42.18875 -71.17687 50 ft 8 kts 353°
2026-05-09 00:10 42.18912 -71.17708 50 ft 1 kts 334°
2026-05-09 00:10 42.18945 -71.17725 50 ft 9 kts 355°
2026-05-09 00:10 42.18990 -71.17642 50 ft 13 kts 63°
2026-05-09 00:10 42.19006 -71.17601 50 ft 0 kts 63°
2026-05-09 00:11 42.19053 -71.17588 50 ft 19 kts 348°
2026-05-09 00:11 42.19143 -71.17509 50 ft 19 kts 74°
2026-05-09 00:11 42.19154 -71.17306 50 ft 23 kts 88°
2026-05-09 00:11 42.19157 -71.17072 50 ft 26 kts 89°
2026-05-09 00:12 42.19161 -71.16808 50 ft 26 kts 89°
2026-05-09 00:12 42.19164 -71.16618 50 ft 10 kts 89°
2026-05-09 00:12 42.19167 -71.16518 51 ft 12 kts 88°
2026-05-09 00:12 42.19169 -71.16409 51 ft 0 kts 75°
2026-05-09 00:13 42.19173 -71.16396 51 ft 0 kts 54°
2026-05-09 00:13 42.19174 -71.16396 51 ft 0 kts 54°
2026-05-09 00:15 42.19207 -71.16383 51 ft 7 kts 358°
2026-05-09 00:15 42.19234 -71.16402 51 ft 0 kts 298°
2026-05-09 00:15 42.19237 -71.16421 51 ft 0 kts 271°
2026-05-09 00:16 42.19236 -71.16515 50 ft 40 kts 268°
2026-05-09 00:16 42.19220 -71.17398 65 ft 143 kts 268°
2026-05-09 00:16 42.19185 -71.18986 561 ft 190 kts 268°
2026-05-09 00:16 42.19157 -71.20878 1265 ft 217 kts 269°
2026-05-09 00:17 42.19114 -71.23025 1753 ft 231 kts 269°
2026-05-09 00:17 42.19079 -71.25151 2067 ft 227 kts 270°
2026-05-09 00:17 42.19052 -71.27293 2281 ft 228 kts 270°
2026-05-09 00:17 42.19209 -71.29383 2448 ft 230 kts 284°
2026-05-09 00:18 42.19843 -71.31581 2759 ft 280 kts 297°
2026-05-09 00:18 42.20881 -71.33958 3412 ft 299 kts 303°
2026-05-09 00:18 42.22087 -71.35999 4057 ft 270 kts 314°
2026-05-09 00:18 42.23564 -71.37559 4530 ft 255 kts 329°
2026-05-09 00:19 42.25130 -71.38414 4556 ft 233 kts 341°
2026-05-09 00:19 42.26656 -71.38852 4689 ft 233 kts 349°
2026-05-09 00:19 42.28385 -71.39001 4855 ft 255 kts 356°
2026-05-09 00:19 42.30188 -71.38809 5012 ft 265 kts
2026-05-09 00:20 42.32071 -71.38288 5389 ft 288 kts
2026-05-09 00:20 42.34033 -71.37726 6382 ft 290 kts
2026-05-09 00:20 42.35967 -71.37155 6908 ft 284 kts
2026-05-09 00:20 42.37909 -71.36637 7044 ft 279 kts
2026-05-09 00:21 42.39813 -71.36137 7127 ft 276 kts
2026-05-09 00:21 42.41663 -71.35684 7509 ft 274 kts
2026-05-09 00:21 42.43632 -71.35201 8361 ft 297 kts
2026-05-09 00:21 42.45622 -71.34752 9902 ft 296 kts
2026-05-09 00:22 42.47646 -71.34279 11067 ft 308 kts
2026-05-09 00:22 42.49823 -71.33775 11917 ft 327 kts
2026-05-09 00:22 42.52104 -71.33295 12994 ft 334 kts
2026-05-09 00:22 42.54417 -71.32875 13832 ft 344 kts
2026-05-09 00:23 42.56815 -71.32375 14083 ft 346 kts
2026-05-09 00:23 42.59186 -71.31980 13954 ft 348 kts
2026-05-09 00:23 42.61537 -71.31595 13910 ft 339 kts
2026-05-09 00:23 42.63868 -71.31132 14079 ft 342 kts
2026-05-09 00:24 42.66247 -71.30598 14059 ft 342 kts
2026-05-09 00:24 42.68585 -71.30169 14059 ft 340 kts
2026-05-09 00:24 42.70950 -71.29712 13970 ft 341 kts
2026-05-09 00:24 42.73275 -71.29199 13917 ft 341 kts
2026-05-09 00:25 42.75634 -71.28656 13847 ft 347 kts
2026-05-09 00:25 42.78113 -71.28423 14148 ft 365 kts 349°
2026-05-09 00:25 42.80514 -71.29403 14990 ft 364 kts 328°
2026-05-09 00:25 42.82577 -71.31406 15903 ft 367 kts 318°
2026-05-09 00:26 42.84507 -71.33681 16824 ft 369 kts 311°
2026-05-09 00:26 42.86035 -71.36444 17766 ft 369 kts 299°
2026-05-09 00:26 42.87115 -71.39615 18512 ft 374 kts 284°
2026-05-09 00:26 42.87519 -71.43167 19017 ft 385 kts 277°
2026-05-09 00:27 42.87780 -71.46792 19556 ft 393 kts 277°
2026-05-09 00:27 42.88072 -71.50536 20014 ft 402 kts 276°
2026-05-09 00:27 42.88293 -71.54349 20735 ft 404 kts 272°
2026-05-09 00:27 42.88425 -71.58099 21623 ft 399 kts 275°
2026-05-09 00:28 42.88612 -71.61903 22195 ft 402 kts 276°
2026-05-09 00:28 42.88797 -71.65726 22616 ft 408 kts 276°
2026-05-09 00:28 42.89056 -71.69606 22969 ft 414 kts 276°
2026-05-09 00:28 42.89225 -71.73497 23571 ft 412 kts 274°
2026-05-09 00:29 42.89429 -71.77405 24106 ft 411 kts 276°
2026-05-09 00:29 42.89662 -71.81284 24463 ft 413 kts 277°
2026-05-09 00:29 42.89952 -71.85053 24765 ft 397 kts 277°
2026-05-09 00:29 42.90194 -71.88838 24990 ft 406 kts 277°
2026-05-09 00:30 42.90430 -71.92656 25383 ft 407 kts 277°
2026-05-09 00:30 42.90708 -71.96471 26135 ft 401 kts 277°
2026-05-09 00:30 42.90941 -72.00229 26945 ft 394 kts 276°
2026-05-09 00:30 42.91174 -72.03887 27495 ft 392 kts 276°
2026-05-09 00:31 42.91404 -72.07596 28032 ft 391 kts 276°
2026-05-09 00:31 42.91668 -72.11301 28523 ft 390 kts 276°
2026-05-09 00:31 42.91906 -72.14972 28823 ft 393 kts 276°
2026-05-09 00:31 42.92152 -72.18722 29100 ft 395 kts 276°
2026-05-09 00:32 42.92338 -72.22459 29259 ft 399 kts 277°
2026-05-09 00:32 42.92629 -72.26251 29374 ft 403 kts 277°
2026-05-09 00:32 42.92950 -72.30083 29563 ft 402 kts 278°
2026-05-09 00:32 42.93254 -72.33849 29725 ft 399 kts 277°
2026-05-09 00:33 42.93503 -72.37557 30030 ft 390 kts 276°
2026-05-09 00:33 42.93729 -72.41238 30376 ft 390 kts 275°
2026-05-09 00:33 42.93955 -72.44946 30548 ft 394 kts 276°
2026-05-09 00:33 42.94197 -72.48677 30776 ft 395 kts 276°
2026-05-09 00:34 42.94444 -72.52396 30921 ft 398 kts 276°
2026-05-09 00:34 42.94663 -72.56159 31027 ft 400 kts 275°
2026-05-09 00:34 42.94890 -72.59995 31119 ft 403 kts 276°
2026-05-09 00:34 42.95108 -72.63758 31589 ft 395 kts 277°
2026-05-09 00:35 42.95287 -72.67468 32018 ft 389 kts 273°
2026-05-09 00:35 42.95399 -72.71126 32286 ft 387 kts 275°
2026-05-09 00:35 42.95563 -72.74736 32777 ft 378 kts 272°
2026-05-09 00:35 42.95682 -72.78302 33172 ft 374 kts 272°
2026-05-09 00:36 42.95799 -72.81837 33393 ft 374 kts 276°
2026-05-09 00:36 42.96081 -72.85347 33604 ft 375 kts 276°
2026-05-09 00:36 42.96358 -72.88863 33911 ft 374 kts 276°
2026-05-09 00:36 42.96623 -72.92389 34273 ft 371 kts 276°
2026-05-09 00:37 42.96875 -72.95854 34669 ft 368 kts 275°
2026-05-09 00:37 42.97120 -72.99325 35122 ft 365 kts 275°
2026-05-09 00:37 42.97355 -73.02751 35582 ft 362 kts 275°
2026-05-09 00:37 42.97581 -73.06119 36010 ft 360 kts 275°
2026-05-09 00:38 42.97804 -73.09538 36372 ft 359 kts 275°
2026-05-09 00:38 42.98020 -73.12911 36695 ft 359 kts 275°
2026-05-09 00:38 42.98233 -73.16322 36986 ft 360 kts 275°
2026-05-09 00:38 42.98441 -73.19695 37264 ft 360 kts 275°
2026-05-09 00:39 42.98647 -73.23114 37592 ft 359 kts 274°
2026-05-09 00:39 42.98848 -73.26493 37867 ft 358 kts 274°
2026-05-09 00:39 42.99046 -73.29878 38144 ft 358 kts 274°
2026-05-09 00:39 42.99239 -73.33221 38404 ft 358 kts 274°
2026-05-09 00:40 42.99411 -73.36634 38633 ft 359 kts 273°
2026-05-09 00:40 42.99530 -73.40050 38843 ft 360 kts 272°
2026-05-09 00:40 42.99614 -73.43449 39072 ft 361 kts 272°
2026-05-09 00:41 42.99780 -73.50300 39499 ft 362 kts 272°
2026-05-09 00:41 42.99863 -73.53745 39722 ft 362 kts 272°
2026-05-09 00:41 42.99943 -73.57147 39926 ft 363 kts 272°
2026-05-09 00:41 43.00024 -73.60596 39952 ft 367 kts 272°
2026-05-09 00:42 43.00185 -73.67662 39963 ft 377 kts 271°
2026-05-09 00:42 43.00345 -73.74927 39966 ft 386 kts 271°
2026-05-09 00:43 43.00504 -73.82288 39978 ft 393 kts 271°
2026-05-09 00:43 43.00663 -73.89820 39942 ft 399 kts 271°
2026-05-09 00:44 43.00818 -73.97431 39977 ft 403 kts 271°
2026-05-09 00:44 43.00969 -74.05103 39957 ft 408 kts 271°
2026-05-09 00:45 43.01115 -74.12889 39946 ft 413 kts 271°
2026-05-09 00:45 43.01259 -74.20757 39945 ft 417 kts 271°
2026-05-09 00:46 43.01474 -74.28667 39942 ft 419 kts 274°
2026-05-09 00:46 43.01864 -74.36626 39933 ft 422 kts 273°
2026-05-09 00:47 43.02209 -74.44624 39940 ft 422 kts 273°
2026-05-09 00:47 43.02569 -74.52627 39921 ft 422 kts 273°
2026-05-09 00:48 43.02913 -74.60590 39928 ft 423 kts 273°
2026-05-09 00:48 43.03255 -74.68679 39942 ft 424 kts 272°
2026-05-09 00:49 43.03593 -74.76661 39927 ft 424 kts 272°
2026-05-09 00:49 43.03926 -74.84718 39926 ft 421 kts 272°
2026-05-09 00:50 43.04239 -74.92516 39934 ft 409 kts 272°
2026-05-09 00:50 43.04552 -75.00276 39934 ft 408 kts 272°
2026-05-09 00:51 43.04855 -75.07986 39927 ft 410 kts 272°
2026-05-09 00:51 43.05156 -75.15763 39936 ft 412 kts 272°
2026-05-09 00:52 43.05454 -75.23608 39933 ft 412 kts 272°
2026-05-09 00:52 43.05737 -75.31380 39948 ft 411 kts 272°
2026-05-09 00:53 43.05947 -75.39150 39939 ft 411 kts 272°
2026-05-09 00:53 43.06168 -75.46960 39935 ft 411 kts 272°
2026-05-09 00:54 43.06383 -75.54742 39939 ft 411 kts 272°
2026-05-09 00:54 43.06585 -75.62539 39939 ft 411 kts 272°
2026-05-09 00:55 43.06789 -75.70322 39930 ft 410 kts 271°
2026-05-09 00:55 43.06987 -75.78085 39931 ft 410 kts 271°
2026-05-09 00:56 43.07172 -75.85792 39938 ft 403 kts 271°
2026-05-09 00:56 43.07356 -75.93402 39926 ft 398 kts 271°
2026-05-09 00:57 43.07532 -76.00912 39953 ft 398 kts 271°
2026-05-09 00:57 43.07687 -76.08485 39922 ft 398 kts 270°
2026-05-09 00:58 43.07867 -76.16054 39925 ft 399 kts 272°
2026-05-09 00:58 43.08021 -76.23623 39937 ft 399 kts 271°
2026-05-09 00:59 43.08178 -76.31222 39949 ft 399 kts 271°
2026-05-09 00:59 43.08309 -76.38748 39893 ft 399 kts 271°
2026-05-09 01:00 43.08440 -76.46304 39892 ft 398 kts 270°
2026-05-09 01:00 43.08589 -76.53865 39913 ft 397 kts 272°
2026-05-09 01:01 43.08736 -76.61392 39920 ft 399 kts 271°
2026-05-09 01:01 43.08157 -76.68882 39913 ft 400 kts 257°
2026-05-09 01:02 43.05939 -76.75913 39908 ft 406 kts 244°
2026-05-09 01:02 43.03136 -76.82560 39919 ft 405 kts 245°
2026-05-09 01:03 43.00374 -76.89239 39922 ft 405 kts 244°
2026-05-09 01:03 42.97578 -76.95918 39916 ft 406 kts 245°
2026-05-09 01:04 42.94797 -77.02590 39919 ft 405 kts 244°
2026-05-09 01:04 42.92020 -77.09232 39921 ft 405 kts 244°
2026-05-09 01:05 42.89233 -77.15910 39919 ft 403 kts 246°
2026-05-09 01:06 42.85681 -77.26158 39927 ft 402 kts 248°
2026-05-09 01:06 42.83278 -77.33029 39923 ft 402 kts 249°
2026-05-09 01:07 42.80891 -77.39902 39925 ft 402 kts 249°
2026-05-09 01:07 42.78505 -77.46712 39917 ft 402 kts 249°
2026-05-09 01:08 42.76093 -77.53581 39907 ft 401 kts 249°
2026-05-09 01:08 42.73708 -77.60374 39910 ft 400 kts 249°
2026-05-09 01:09 42.71291 -77.67233 39919 ft 401 kts 248°
2026-05-09 01:09 42.68879 -77.74042 39917 ft 401 kts 248°
2026-05-09 01:10 42.66464 -77.80858 39922 ft 400 kts 248°
2026-05-09 01:10 42.64065 -77.87620 39918 ft 399 kts 248°
2026-05-09 01:11 42.61659 -77.94371 39911 ft 398 kts 248°
2026-05-09 01:11 42.59240 -78.01144 39909 ft 398 kts 248°
2026-05-09 01:12 42.56845 -78.07844 39910 ft 397 kts 248°
2026-05-09 01:12 42.54428 -78.14579 39912 ft 397 kts 248°
2026-05-09 01:13 42.52022 -78.21270 39910 ft 397 kts 249°
2026-05-09 01:13 42.49614 -78.27949 39902 ft 396 kts 248°
2026-05-09 01:14 42.47199 -78.34632 39917 ft 396 kts 248°
2026-05-09 01:14 42.44760 -78.41363 39913 ft 396 kts 249°
2026-05-09 01:15 42.42339 -78.48029 39907 ft 396 kts 248°
2026-05-09 01:15 42.39921 -78.54680 39901 ft 395 kts 249°
2026-05-09 01:16 42.37487 -78.61345 39917 ft 395 kts 248°
2026-05-09 01:16 42.35057 -78.67993 39910 ft 396 kts 248°
2026-05-09 01:17 42.31381 -78.77929 39881 ft 394 kts 249°
2026-05-09 01:17 42.29012 -78.84415 39869 ft 369 kts 248°
2026-05-09 01:18 42.27892 -78.87443 39838 ft 355 kts 248°
2026-05-09 01:18 42.26812 -78.90359 39602 ft 347 kts 248°
2026-05-09 01:18 42.25748 -78.93250 39243 ft 343 kts 249°
2026-05-09 01:18 42.24693 -78.96125 38787 ft 341 kts 249°
2026-05-09 01:19 42.23647 -78.98971 38346 ft 339 kts 249°
2026-05-09 01:19 42.22600 -79.01801 37961 ft 338 kts 249°
2026-05-09 01:19 42.21559 -79.04607 37567 ft 336 kts 249°
2026-05-09 01:19 42.20522 -79.07397 37170 ft 334 kts 249°
2026-05-09 01:20 42.19484 -79.10201 36701 ft 334 kts 250°
2026-05-09 01:20 42.18634 -79.13055 36265 ft 327 kts 258°
2026-05-09 01:20 42.18171 -79.16033 35865 ft 323 kts 264°
2026-05-09 01:20 42.17809 -79.18997 35444 ft 322 kts 264°
2026-05-09 01:21 42.17430 -79.21954 35008 ft 322 kts 263°
2026-05-09 01:21 42.16980 -79.24905 34509 ft 322 kts 262°
2026-05-09 01:21 42.16562 -79.27872 33926 ft 323 kts 263°
2026-05-09 01:21 42.16153 -79.30841 33386 ft 322 kts 263°
2026-05-09 01:22 42.15725 -79.33789 32833 ft 319 kts 263°
2026-05-09 01:22 42.15300 -79.36678 32333 ft 315 kts 263°
2026-05-09 01:22 42.14890 -79.39520 31842 ft 311 kts 263°
2026-05-09 01:22 42.14484 -79.42363 31327 ft 307 kts 263°
2026-05-09 01:23 42.14084 -79.45161 30789 ft 304 kts 263°
2026-05-09 01:23 42.13688 -79.47900 30245 ft 301 kts 263°
2026-05-09 01:23 42.13287 -79.50658 29628 ft 300 kts 262°
2026-05-09 01:23 42.12888 -79.53410 29062 ft 298 kts 263°
2026-05-09 01:24 42.12494 -79.56133 28475 ft 297 kts 263°
2026-05-09 01:24 42.12103 -79.58839 27822 ft 297 kts 262°
2026-05-09 01:24 42.11708 -79.61568 27213 ft 296 kts 262°
2026-05-09 01:24 42.11319 -79.64226 26697 ft 293 kts 262°
2026-05-09 01:25 42.10928 -79.66908 26097 ft 294 kts 262°
2026-05-09 01:25 42.10535 -79.69599 25436 ft 296 kts 262°
2026-05-09 01:25 42.10138 -79.72318 24876 ft 294 kts 261°
2026-05-09 01:25 42.09743 -79.75011 24372 ft 291 kts 261°
2026-05-09 01:26 42.09353 -79.77654 23974 ft 286 kts 261°
2026-05-09 01:26 42.08967 -79.80257 23905 ft 283 kts 261°
2026-05-09 01:26 42.08585 -79.82863 23902 ft 287 kts 261°
2026-05-09 01:26 42.08200 -79.85472 23904 ft 288 kts 261°
2026-05-09 01:27 42.07803 -79.88146 23901 ft 288 kts 261°
2026-05-09 01:27 42.07413 -79.90774 23893 ft 288 kts 261°
2026-05-09 01:27 42.07023 -79.93405 23887 ft 288 kts 261°
2026-05-09 01:27 42.06630 -79.96050 23897 ft 288 kts 261°
2026-05-09 01:28 42.06238 -79.98690 23906 ft 288 kts 261°
2026-05-09 01:28 42.05841 -80.01342 23913 ft 288 kts 261°
2026-05-09 01:28 42.05445 -80.03979 23907 ft 288 kts 261°
2026-05-09 01:28 42.05054 -80.06587 23898 ft 288 kts 261°
2026-05-09 01:29 42.04660 -80.09232 23898 ft 289 kts 261°
2026-05-09 01:29 42.04263 -80.11891 23906 ft 289 kts 261°
2026-05-09 01:29 42.03870 -80.14517 23908 ft 289 kts 261°
2026-05-09 01:29 42.03470 -80.17172 23901 ft 289 kts 261°
2026-05-09 01:30 42.03070 -80.19813 23905 ft 289 kts 261°
2026-05-09 01:30 42.02668 -80.22461 23905 ft 289 kts 261°
2026-05-09 01:30 42.02268 -80.25108 23894 ft 289 kts 261°
2026-05-09 01:30 42.01866 -80.27757 23909 ft 288 kts 261°
2026-05-09 01:31 42.01384 -80.30363 23892 ft 290 kts 253°
2026-05-09 01:31 42.00605 -80.32858 23804 ft 286 kts 249°
2026-05-09 01:31 41.99810 -80.35279 23268 ft 285 kts 252°
2026-05-09 01:31 41.99068 -80.37750 22590 ft 287 kts 251°
2026-05-09 01:32 41.98313 -80.40213 21952 ft 288 kts 252°
2026-05-09 01:32 41.97553 -80.42701 21371 ft 286 kts 251°
2026-05-09 01:32 41.96805 -80.45151 20762 ft 286 kts 251°
2026-05-09 01:32 41.96043 -80.47626 20169 ft 285 kts 251°
2026-05-09 01:33 41.95283 -80.50085 19571 ft 285 kts 251°
2026-05-09 01:33 41.94531 -80.52518 19063 ft 281 kts 251°
2026-05-09 01:33 41.93787 -80.54933 18894 ft 280 kts 251°
2026-05-09 01:33 41.93045 -80.57352 18872 ft 281 kts 251°
2026-05-09 01:34 41.92306 -80.59757 18884 ft 282 kts 251°
2026-05-09 01:34 41.91548 -80.62212 18894 ft 283 kts 251°
2026-05-09 01:34 41.90798 -80.64629 18890 ft 283 kts 251°
2026-05-09 01:34 41.90027 -80.67078 18879 ft 283 kts 248°
2026-05-09 01:35 41.89270 -80.69501 18856 ft 276 kts 251°
2026-05-09 01:35 41.88560 -80.71857 18465 ft 272 kts 250°
2026-05-09 01:35 41.87832 -80.74223 17719 ft 279 kts 250°
2026-05-09 01:35 41.87089 -80.76598 17148 ft 279 kts 249°
2026-05-09 01:36 41.86342 -80.78993 16619 ft 279 kts 250°
2026-05-09 01:36 41.85603 -80.81380 16106 ft 278 kts 249°
2026-05-09 01:36 41.84869 -80.83752 15612 ft 275 kts 249°
2026-05-09 01:36 41.84135 -80.86118 15107 ft 274 kts 249°
2026-05-09 01:37 41.83402 -80.88470 14620 ft 273 kts 249°
2026-05-09 01:37 41.82677 -80.90794 14106 ft 273 kts 249°
2026-05-09 01:37 41.81945 -80.93140 13591 ft 273 kts 249°
2026-05-09 01:37 41.81212 -80.95490 13109 ft 271 kts 249°
2026-05-09 01:38 41.80490 -80.97803 12639 ft 270 kts 249°
2026-05-09 01:38 41.79768 -81.00114 12155 ft 269 kts 249°
2026-05-09 01:38 41.79048 -81.02395 11728 ft 266 kts 247°
2026-05-09 01:38 41.78236 -81.04607 11238 ft 266 kts 245°
2026-05-09 01:39 41.77654 -81.06937 10782 ft 261 kts 265°
2026-05-09 01:39 41.77961 -81.09275 10344 ft 261 kts 293°
2026-05-09 01:39 41.79145 -81.11124 9856 ft 271 kts 321°
2026-05-09 01:39 41.80923 -81.12013 9417 ft 280 kts 349°
2026-05-09 01:40 41.82868 -81.11613 8939 ft 293 kts 19°
2026-05-09 01:40 41.84541 -81.09991 8518 ft 297 kts 40°
2026-05-09 01:40 41.86013 -81.08052 8088 ft 297 kts 41°
2026-05-09 01:40 41.87459 -81.06145 7719 ft 293 kts 41°
2026-05-09 01:41 41.88917 -81.04249 7344 ft 291 kts 41°
2026-05-09 01:41 41.90379 -81.02352 7020 ft 287 kts 41°
2026-05-09 01:41 41.91822 -81.00491 6979 ft 288 kts 41°
2026-05-09 01:41 41.93270 -80.98634 6989 ft 288 kts 41°
2026-05-09 01:42 41.94661 -80.96718 6983 ft 289 kts 50°
2026-05-09 01:42 41.95440 -80.94238 7023 ft 293 kts 81°
2026-05-09 01:42 41.95274 -80.91534 7035 ft 292 kts 110°
2026-05-09 01:42 41.94255 -80.89233 7016 ft 289 kts 130°
2026-05-09 01:43 41.92991 -80.87153 6970 ft 287 kts 131°
2026-05-09 01:43 41.91725 -80.85074 6978 ft 287 kts 131°
2026-05-09 01:43 41.90451 -80.82961 6997 ft 288 kts 130°
2026-05-09 01:43 41.89132 -80.80975 7004 ft 285 kts 141°
2026-05-09 01:44 41.87412 -80.79837 7004 ft 269 kts 172°
2026-05-09 01:44 41.85589 -80.79931 6498 ft 261 kts 201°
2026-05-09 01:44 41.84054 -80.81145 5837 ft 262 kts 220°
2026-05-09 01:44 41.82652 -80.82667 5392 ft 258 kts 221°
2026-05-09 01:45 41.81269 -80.84183 5049 ft 251 kts 220°
2026-05-09 01:45 41.79900 -80.85678 4992 ft 255 kts 220°
2026-05-09 01:45 41.78531 -80.87176 4975 ft 255 kts 221°
2026-05-09 01:45 41.77153 -80.88679 4989 ft 255 kts 220°
2026-05-09 01:46 41.75954 -80.90372 5010 ft 253 kts 238°
2026-05-09 01:46 41.75506 -80.92644 5038 ft 253 kts 271°
2026-05-09 01:46 41.76053 -80.94866 5040 ft 257 kts 302°
2026-05-09 01:46 41.77385 -80.96491 5037 ft 262 kts 321°
2026-05-09 01:47 41.78687 -80.98127 4949 ft 254 kts 299°
2026-05-09 01:47 41.79175 -81.00329 4929 ft 249 kts 266°
2026-05-09 01:47 41.78632 -81.02487 4906 ft 250 kts 234°
2026-05-09 01:47 41.77353 -81.04114 4885 ft 252 kts 220°
2026-05-09 01:48 41.75989 -81.05599 4940 ft 254 kts 221°
2026-05-09 01:48 41.74604 -81.07090 4952 ft 254 kts 220°
2026-05-09 01:48 41.73235 -81.08562 4970 ft 255 kts 220°
2026-05-09 01:48 41.71847 -81.10068 4968 ft 254 kts 221°
2026-05-09 01:49 41.70481 -81.11555 4990 ft 254 kts 221°
2026-05-09 01:49 41.69102 -81.13045 5002 ft 254 kts 221°
2026-05-09 01:49 41.67713 -81.14539 4996 ft 254 kts 221°
2026-05-09 01:49 41.66340 -81.16023 4995 ft 254 kts 217°
2026-05-09 01:50 41.64970 -81.17492 4992 ft 255 kts 221°
2026-05-09 01:50 41.63585 -81.18975 4986 ft 255 kts 216°
2026-05-09 01:50 41.62190 -81.20446 4958 ft 247 kts 221°
2026-05-09 01:50 41.60882 -81.21847 4529 ft 245 kts 219°
2026-05-09 01:51 41.59544 -81.23344 3738 ft 255 kts 221°
2026-05-09 01:51 41.58190 -81.24822 3340 ft 249 kts 221°
2026-05-09 01:51 41.56876 -81.26280 3027 ft 243 kts 221°
2026-05-09 01:51 41.55567 -81.27728 2978 ft 245 kts 220°
2026-05-09 01:52 41.54289 -81.29105 3002 ft 227 kts 223°
2026-05-09 01:52 41.53442 -81.30797 3086 ft 217 kts 254°
2026-05-09 01:52 41.53494 -81.32793 3057 ft 219 kts 289°
2026-05-09 01:52 41.54434 -81.34347 3039 ft 219 kts 323°
2026-05-09 01:53 41.55764 -81.35239 2947 ft 216 kts 332°
2026-05-09 01:53 41.57119 -81.36049 2939 ft 209 kts 331°
2026-05-09 01:53 41.58431 -81.36840 3004 ft 207 kts 332°
2026-05-09 01:53 41.59758 -81.37641 3015 ft 207 kts 332°
2026-05-09 01:54 41.61062 -81.38438 2999 ft 206 kts 331°
2026-05-09 01:54 41.62367 -81.39236 2997 ft 206 kts 331°
2026-05-09 01:54 41.63499 -81.40326 2979 ft 200 kts 304°
2026-05-09 01:54 41.63900 -81.42053 2975 ft 193 kts 266°
2026-05-09 01:55 41.63492 -81.43684 2987 ft 187 kts 241°
2026-05-09 01:55 41.62773 -81.45119 2997 ft 184 kts 236°
2026-05-09 01:55 41.62046 -81.46525 2993 ft 184 kts 237°
2026-05-09 01:55 41.61354 -81.47952 2992 ft 181 kts 238°
2026-05-09 01:56 41.60713 -81.49324 3009 ft 171 kts 239°
2026-05-09 01:56 41.60091 -81.50662 3002 ft 166 kts 238°
2026-05-09 01:56 41.59475 -81.51968 2996 ft 164 kts 238°
2026-05-09 01:56 41.58873 -81.53252 2970 ft 165 kts 239°
2026-05-09 01:57 41.58279 -81.54533 2790 ft 157 kts 239°
2026-05-09 01:57 41.57738 -81.55698 2605 ft 142 kts 239°
2026-05-09 01:57 41.57222 -81.56802 2413 ft 137 kts 238°
2026-05-09 01:57 41.56738 -81.57834 2244 ft 124 kts 238°
2026-05-09 01:58 41.56295 -81.58779 2078 ft 121 kts 238°
2026-05-09 01:58 41.55854 -81.59717 1910 ft 118 kts 237°
2026-05-09 01:58 41.55417 -81.60643 1758 ft 117 kts 238°
2026-05-09 01:58 41.54986 -81.61565 1599 ft 117 kts 237°
2026-05-09 01:59 41.54554 -81.62486 1442 ft 117 kts 237°
2026-05-09 01:59 41.54128 -81.63396 1291 ft 117 kts 236°
2026-05-09 01:59 41.53690 -81.64326 1140 ft 118 kts 236°
2026-05-09 01:59 41.53261 -81.65262 974 ft 119 kts 235°
2026-05-09 02:00 41.52842 -81.66197 805 ft 119 kts 236°
2026-05-09 02:00 41.52409 -81.67104 645 ft 117 kts 233°
2026-05-09 02:00 41.51966 -81.68040 582 ft 112 kts 234°
2026-05-09 02:00 41.51674 -81.68652 582 ft 27 kts 238°
2026-05-09 02:01 41.51588 -81.68835 582 ft 19 kts 236°
2026-05-09 02:01 41.51510 -81.68999 582 ft 22 kts 237°
2026-05-09 02:01 41.51443 -81.69141 582 ft 11 kts 236°
2026-05-09 02:01 41.51394 -81.69172 582 ft 8 kts 162°
2026-05-09 02:02 41.51321 -81.69113 583 ft 14 kts 147°
2026-05-09 02:02 41.51279 -81.69076 583 ft 3 kts 147°
2026-05-09 02:02 41.51264 -81.69032 583 ft 8 kts 76°
2026-05-09 02:02 41.51284 -81.68979 583 ft 1 kts 59°
2026-05-09 02:03 41.51297 -81.68948 583 ft 6 kts 59°
2026-05-09 02:03 41.51294 -81.68878 583 ft 5 kts 120°
2026-05-09 02:03 41.51282 -81.68835 584 ft 4 kts 95°
2026-05-09 02:03 41.51279 -81.68788 584 ft 5 kts 96°
2026-05-09 02:04 41.51269 -81.68732 584 ft 5 kts 78°
2026-05-09 02:04 41.51277 -81.68708 584 ft 0 kts 58°